The magnitude 13.4 asteroid (177) Irma occults the magnitude 5.6 star 49 Sagittarius (HD 182416) in the constellation Sagittarius, at 08:19 UT, 25th June, 2010.
The 7.1 second event is visible from Argentina, Chile and New Zealand.
Position (2000): RA 19 25 29.6599, Dec -23 57 44.844...
Orbital elements: 2010 MY1 Earth MOID = 0.0167 AU Epoch 2010 July 23.0 TT = JDT 2455400.5 MPC M 347.72843 (2000.0) P Q n 0.73543843 Peri. 218.75914 +0.77227183 +0.61343453 a 1.2155472 Node 102.60135 -0.53254396 +0.76689311 e 0.2119102 Incl. 9.74641 -0.34640028 +0.18860816 P 1.34 H 23.7 G 0.15 U 8 [...
One of Wales' "elite" peaks has grown in stature after an official measurement to verify its height. It was feared Tryfan, in Snowdonia, could have fallen short of the 3,000ft (914m) elite mountain status needed to keep as one of Wales' 14 highest peaks. But enthusiasts who scaled it with...
El GTC y el VLT, dos de los mayores telescopios del mundo, observan la activación de un cuásar por un encuentro entre galaxias La investigación, liderada por el Instituto de Astrofísica de Andalucía (IAA-CSIC), emplea dos de las mayores instalaciones astronómicas del mundo: el Very Large Telesco...
Star Party - Night Sky Viewing Saturday, May 8 Beginning at sunset Wapsi River Environmental Centre outside Dixon, Iowa Free and open to the public On-site 12- and 14-inch telescopes will be available at the St. Ambrose S. G. Menke Observatory for sky viewing; visitors are welcome to bring smaller t...
At a ceremony held today at the National Federation of the Blind, NASA unveiled a new book that brings majestic images taken by its Great Observatories to the fingertips of the blind. The Great Observatories include NASA's Hubble, Chandra and Spitzer space telescopes. "Touch the Invisible S...
DST Haryana to install Telescope in Panchkula office Haryana Science and Technology Department has decided to install telescope in its office building at Panchkula which will be opened to people soon. While stating this here today, the Director of Haryana Science and Technology Department, Mr S...
Orbital elements: 2010 MW1 Earth MOID = 0.4932 AU Epoch 2010 July 23.0 TT = JDT 2455400.5 MPC M 347.27074 (2000.0) P Q n 0.24007913 Peri. 90.38323 +0.81233852 +0.43516621 a 2.5638923 Node 243.85847 -0.53098566 +0.82720151 e 0.5271799 Incl. 25.62555 +0.24116458 +0.35548282 P 4.11 H 19.5 G 0.15 U 8 [...
Maxima of long period variable HD 39741 (V Cam) on the 24th June, 2010. Magnitude: 9.9-15.4 Type: Mira Position (2000): RA 06 02 32.2969, Dec +74 30 27.098
Israel launches spy satellite Israel boosts space presence: The defense establishment launched another spy satellite to space Tuesday evening, thereby boosting Israel's intelligence-gatherings capabilities, mostly at distant theatres. The latest satellite, Ofek 9, will be the sixth one t...
They say lightning never strikes twice. But for Ipswich amateur astronomer Brendan Downs, a celestial phenomenon of a different kind has earned him notoriety for the second time. About 1.30am on May 23, Mr Downs discovered a supernova (an exploding star) in a galaxy called Pava, "tens of mill...
Instructions on how to build a nuclear reactor have been revealed from five sealed envelopes that have lain hidden for almost 70 years. The documents were sent to the UK's Royal Society for safekeeping by James Chadwick, discoverer of the neutron, during the World War II. He felt their contents, whi...
The tower on top of Glastonbury Tor in Somerset has been covered in purple paint and had graffiti daubed on its flagstones. The National Trust, which owns and maintains the Tor, said it was "dismayed" after spending more than £500,000 recently on its restoration. The Trust said the south...